Weather Service Report


425 
ASUS44 KJAN 221110
RWRMS 

MISSISSIPPI HOURLY WEATHER ROUNDUP
NATIONAL WEATHER SERVICE JACKSON MS
600 AM CDT TUE JUL 22 2014

NOTE: "FAIR: INDICATES FEW OR NO CLOUDS BELOW 12,000 FEET WITH NO
SIGNIFICANT WEATHER AND/OR OBSTRUCTIONS TO VISIBILITY.

MSZ001>002-007>008-010>013-018>021-025>028-034>036-221200-
NORTHWEST MISSISSIPPI
  
CITY           SKY/WX    TMP DP  RH WIND       PRES   REMARKS
CLARKSDALE     FAIR      68  68 100 CALM      30.08R VSB 1            
CLEVELAND      FAIR      68  68  99 NE3       30.05S                  
GREENWOOD      CLEAR     67  66  97 CALM      30.05S FOG              
GREENVILLE     CLEAR     69  68  96 CALM      30.05R                  
GRENADA        FAIR      64  64 100 CALM      30.06S                  
OLIVE BRANCH   CLEAR     66  66 100 CALM      30.08S                  
OXFORD         FAIR      66  64  94 CALM      30.09S FOG              
TUNICA         SUNNY     68  64  88 CALM      30.08S FOG              
$$

MSZ003>006-009-014>017-022>024-029>033-037>039-221200-
NORTHEAST MISSISSIPPI
  
CITY           SKY/WX    TMP DP  RH WIND       PRES   REMARKS
BELMONT        FAIR      69  69  99 CALM      30.07R FOG              
COLUMBUS AFB   MOCLDY    71  71 100 CALM      30.05R                  
CORINTH        FAIR      68  66  94 CALM      30.07S FOG              
GOLDN TRIANGLE CLEAR     72  66  83 CALM      30.05S FOG              
STARKVILLE     FAIR      70  68  94 CALM      30.05R FOG              
TUPELO         CLEAR     70  67  90 NE6       30.06R                  
$$

MSZ040-058-221200-
CENTRAL MISSISSIPPI
  
CITY           SKY/WX    TMP DP  RH WIND       PRES   REMARKS
JACKSON INTL   CLEAR     70  68  93 CALM      30.04R                  
JACKSON HAWKNS CLEAR     71  67  87 CALM      30.05R                  
MERIDIAN KEY   CLOUDY    71  69  93 NW3       30.03R                  
MERIDIAN NAS   CLOUDY    73  70  90 N5        30.05R                  
RAYMOND        FAIR      68  63  83 CALM      30.05R HAZE             
VICKSBURG      CLEAR     70  68  93 N3        30.04R                  
$$

MSZ059>079-221200-
SOUTH MISSISSIPPI
  
CITY           SKY/WX    TMP DP  RH WIND       PRES   REMARKS
BROOKHAVEN     FAIR      70  70 100 CALM      30.06R FOG              
COLUMBIA       FAIR      72  72 100 CALM      30.02R FOG              
HATTIESBURG    MOCLDY    73  71  93 CALM      30.02R                  
MCCOMB         CLEAR     71  69  93 N3        30.03R                  
NATCHEZ        CLEAR     68  66  94 CALM      30.05R                  
PINE BELT      MOCLDY    73  68  83 N5        30.04R                  
$$

MSZ080>082-221200-
COASTAL MISSISSIPPI
  
CITY           SKY/WX    TMP DP  RH WIND       PRES   REMARKS
BILOXI         PTCLDY    76  72  88 VRB3      30.00R                  
PASCAGOULA     PTCLDY    74  71  91 CALM      30.00R                  
GULFPORT       PTCLDY    76  71  85 CALM      29.99S                  
$$

Return to Home page


Western Regional Climate Center, wrcc@dri.edu